Showing default

OPS 9312 (IDSCS 2), 2216

Orbit data source: Space-Track

OPS 9312 (IDSCS 2), 2216 is a payload satellite owned by USAF SSD (US) in GEO that was launched on Thu, 16 Jun 1966 UTC via a TITAN IIIC launch vehicle from the Air Force Eastern Test Range (AFETR). Payloads include a variety of satellites, spacecraft, and rockets equipped with specific instruments for various scientific and technological missions. These include communications satellites like Starlink; space stations such as the ISS; scientific satellites like the Hubble; Earth observation satellites from companies like Planet Labs, Umbra, and HawkEye 360; GPS; miniature CubeSats for education and research; and military/defense satellites.

Loading next visibility...
OPS 9312 (IDSCS 2) details
Identifier
2216, 1966-053C
Orbit
GEO
Last TLE update1 day ago
Origin
Flag of USUSAF SSD (US)
ManufacturerPhilco-Ford WDL
MissionNon-operational Defense Communications
Bus & MotorIDCSP, Unknown motor
Mass45 kg wet, 45 kg dry
Launch date (UTC)
1966-06-16 (59 years ago)
Launch vehicle
TITAN IIIC
Launch site
Air Force Eastern Test Range (AFETR)
Object type
Payload
Rocket body
Debris
Shape & HBRIco Poly, 0.9 m
Radar Cross Section0.926 m², Medium (>0.1 m² and < 1m²)

Expand to show TLE details & history

TLE from 1 day ago
0 OPS 9312 (IDSCS 2)
1 02216U 66053C   24355.35095896 -.00000066  00000-0  00000-0 0  9998
2 02216   7.6460  48.7316 0033688 204.1385 154.7687  1.07850551 43395
Epoch: 2024-12-20T08:25Z
Definitive object data (Epoch: 2024-12-20T08:25:22.854Z)
Latitude-0.11584°
Longitude-167.9466°
Altitude33,909.648 km
Speed3.141 km/s
True Right ascension03h 11m 15s
True Declination0° 06' 57"
Sunlit
Object was in daylight at TLE epoch
Visualization TLE readout
Latitude7.52867°
Longitude-66.05316°
Altitude33,817.132 km
Speed3.148 km/s
Apparent Right ascension09h 42m 44s
Apparent Declination1° 54' 28"
Sunlit
Object is in daylight
Visualization observer readout
Local Sidereal Time12:01:59
Azimuth228.715° WSW
Elevation40.596°
Doppler factor1
Orbital elements
Apogee altitude33,923.807 km
Perigee altitude33,653.18 km
Semi-major axis40,166.631 km
Eccentricity0.0033688
Inclination7.646°
RAAN48.7316°
Arg. of periapsis204.1385°
True anomaly154.93263°
Mean anomaly154.7687°
Eccentric anomaly154.85073°
Mean motion0.26962 °/min
BSTARUnknown
Orbital period1335.23 mins
Loading historical data...
2216 neighbors
Authenticating...
Loading maneuver chart data...
Loading historical data...
Loading historical data...
Loading historical data...
Loading historical data...
Loading historical data...
Loading historical data...
Loading historical data...

OPS 9312 (IDSCS 2) Visibility forecast

Observer location: undefined°, undefined

Span
Click to sort rows by Start time (UTC) header in descending order
Start Az.
Max El. time (UTC)
Max El. Az.
Max El.
End time (UTC)
End Az.
1440 mins2024-12-21 13:00:05.932Z228.698° WSW2024-12-22 10:53:05.932Z190.959° SSW38.104°2024-12-22 13:00:05.932Z185.935° SSW
|